Flag for Tuvalu Weather past 2 weeks in Funafuti, Tuvalu

Now
86 °F

Scattered clouds.


Feels Like: 97 °F
Forecast: 82 / 89 °F
Wind: No wind

Location: Funafuti

Current Time: Jul 4, 2015 at 3:56:50 PM

Latest Report: Jul 4, 2015 at 3:00 PM


Visibility: N/A

Pressure: 29.74 "Hg

Humidity: 75%

Dew point: 77 °F

Location of FunafutiLocation

Historic Weather in Funafuti — Graph

°F

Funafuti temperature yesterday

Maximum temperature yesterday: 90 °F (at 10:00 AM)
Minimum temperature yesterday: 79 °F (at 11:00 PM)
Average temperature yesterday: 84 °F

Past Weeks' High & Low Weather Summary

 TemperatureHumidityPressure
High91 °F (Jun 19, 2:00 PM)100% (Jun 25, 5:00 AM)29.86 "Hg (Jun 25, 5:00 AM)
Low39 °F (Jul 4, 8:00 AM)45% (Jun 20, 6:00 PM)29.68 "Hg (Jun 20, 4:00 PM)
Average83 °F83%29.78 "Hg
* Reported Jun 19 2:00 PM — Jul 4 2:00 PM, Funafuti, Weather by CustomWeather, © 2015

Note: Actual official high and low records may vary slightly from our data, if they occured in-between our weather recording intervals... More about our weather records

Advertising

Funafuti weather history for previous 24 hours

 ConditionsComfort  
Time TempWeatherWind HumidityBarometerVisibility
2:00 PM
Sat, Jul 4
86 °FScattered clouds.1 mph75%29.77 "HgN/A
1:00 PM84 °FScattered clouds.1 mph79%29.80 "HgN/A
12:00 PM86 °FPartly sunny.3 mph79%29.80 "HgN/A
11:00 AM81 °FScattered showers. Broken clouds.7 mph79%29.86 "HgN/A
10:00 AM82 °FScattered showers. Broken clouds.8 mph84%29.86 "HgN/A
9:00 AM81 °FScattered showers. Broken clouds.7 mph79%29.86 "HgN/A
8:00 AM39 °FScattered clouds.2 mph100%29.86 "HgN/A
7:00 AM77 °FSprinkles. More clouds than sun.3 mph94%29.83 "HgN/A
6:00 AM77 °FRain. Mostly cloudy.2 mph94%29.80 "HgN/A
5:00 AM79 °FRain. Mostly cloudy.12 mph94%29.71 "HgN/A
4:00 AM79 °FScattered showers. Mostly cloudy.2 mph94%29.77 "HgN/A
3:00 AM77 °FSprinkles. Mostly cloudy.6 mph94%29.77 "HgN/A
2:00 AM77 °FSprinkles. Mostly cloudy.7 mph94%29.77 "HgN/A
1:00 AM81 °FScattered showers. Partly cloudy.5 mph89%29.77 "HgN/A
12:00 AM79 °FRain showers. Mostly cloudy.9 mph94%29.77 "HgN/A
11:00 PM
Fri, Jul 3
79 °FRain showers. Mostly cloudy.3 mph94%29.80 "HgN/A
10:00 PM81 °FSprinkles. Partly cloudy.1 mph89%29.80 "HgN/A
9:00 PM81 °FScattered showers. Partly cloudy.3 mph89%29.77 "HgN/A
8:00 PM82 °FScattered showers. Passing clouds.3 mph89%29.74 "HgN/A
7:00 PM82 °FScattered showers. Passing clouds.3 mph89%29.74 "HgN/A
6:00 PM84 °FScattered showers. Partly cloudy.10 mph84%29.71 "HgN/A
5:00 PM84 °FScattered showers. Broken clouds.No wind84%29.71 "HgN/A
4:00 PM88 °FScattered showers. Broken clouds.1 mph75%29.71 "HgN/A
3:00 PM82 °FScattered showers. Broken clouds.3 mph84%29.71 "HgN/A
Weather by CustomWeather, © 2015

See weather overviewHow to use our weather pages